This demonstration page uses our WeatherBlox Daily Observations layout. Learn more.

Left ArrowRight Arrow

39.92423, -83.80882

Hourly Observations for June 20, 2021

Temp ( °F °C ) Dew Point ( °F °C ) Humidity (%) Winds ( mph kmh ) Pressure ( in mb ) Visibility ( mi km ) Precip ( " mm )
12:56 am 00:56 Clear 73 22.8 73 22.8 100 100 SSW 8 13 29.80 1009 10 16 N/A
1:56 am 01:56 Partly Cloudy 73 23 N/A N/A SSW 6 9 29.80 1009 10 16 N/A
2:56 am 02:56 Mostly Cloudy 72 22 N/A N/A SSW 7 11 29.80 1009 10 16 N/A
3:56 am 03:56 Mostly Cloudy 73 23 N/A N/A SSW 9 15 29.80 1009 10 16 N/A
4:56 am 04:56 Cloudy 72 22 N/A N/A SSW 9 15 29.80 1009 10 16 N/A
5:56 am 05:56 Partly Cloudy 72 22 N/A N/A SW 9 15 29.81 1009 10 16 N/A
6:56 am 06:56 Mostly Sunny 72 22 N/A N/A WSW 9 15 29.81 1010 10 16 N/A
7:56 am 07:56 Partly Cloudy 73 23 N/A N/A SSW 8 13 29.80 1009 10 16 N/A
8:38 am 08:38 Mostly Sunny 73 23 73 23 100 100 SSW 13 20 29.79 1009 10 16 N/A
8:56 am 08:56 Mostly Sunny 75 23.9 75 23.9 100 100 SW 12 19 29.82 1010 10 16 N/A
9:31 am 09:31 Mostly Cloudy 77 25 75 24 94 94 SW 12 19 29.80 1009 10 16 N/A
9:56 am 09:56 Partly Cloudy 77 25 75 23.9 94 94 SW 10 17 29.83 1010 10 16 N/A
10:29 am 10:29 Mostly Cloudy 81 27 73 23 79 79 WSW 15 24 29.79 1009 10 16 N/A
10:56 am 10:56 Cloudy 80 26.7 74 23.3 82 82 WSW 15 24 29.80 1009 10 16 N/A
11:27 am 11:27 Partly Cloudy 81 27 73 23 79 79 SW 10 17 29.77 1008 10 16 N/A
11:56 am 11:56 Partly Cloudy 82 27.8 73 22.8 74 74 SW 12 19 29.79 1009 10 16 N/A
12:42 pm 12:42 Mostly Cloudy 82 28 73 23 74 74 SW 12 19 29.75 1008 10 16 N/A
12:53 pm 12:53 Partly Cloudy 84 29 73 23 70 70 WSW 10 17 29.74 1007 10 16 N/A
12:56 pm 12:56 Partly Cloudy 84 28.9 73 22.8 70 70 SSW 14 22 29.78 1008 10 16 N/A
1:56 pm 13:56 Mostly Cloudy 83 28.3 73 22.8 72 72 SW 14 22 29.77 1008 10 16 N/A
2:56 pm 14:56 Cloudy 84 28.9 73 22.8 70 70 SW 10 17 29.75 1007 10 16 N/A
3:56 pm 15:56 Mostly Cloudy 84 28.9 73 22.8 70 70 SW 12 19 29.74 1007 10 16 N/A
4:56 pm 16:56 Mostly Sunny 86 30 73 22.8 65 65 SW 10 17 29.72 1007 10 16 N/A
5:56 pm 17:56 Mostly Sunny 86 30 73 22.8 65 65 SW 10 17 29.72 1007 10 16 N/A
6:56 pm 18:56 Sunny 84 28.9 73 22.8 70 70 SW 9 15 29.71 1006 10 16 N/A
7:56 pm 19:56 Mostly Sunny 82 27.8 73 22.8 74 74 SW 10 17 29.70 1006 10 16 N/A
8:56 pm 20:56 Mostly Sunny 80 26.7 75 23.9 85 85 S 5 7 29.70 1006 10 16 N/A
9:56 pm 21:56 Clear 79 26.1 74 23.3 85 85 SSW 5 7 29.70 1006 10 16 N/A
10:56 pm 22:56 Clear 77 25 75 23.9 94 94 SSW 6 9 29.71 1006 10 16 N/A
11:56 pm 23:56 Clear 77 25 73 22.8 88 88 SSW 8 13 29.69 1005 10 16 N/A

Powered by AerisWeather